Regional Weather Roundup
Issued by NWS Cleveland, OH

Home | Current Version | Previous Version | Text Only | Print | Product List | Glossary Off
Versions: 1 2 3 4 5 6 7 8 9 10 11 12 13 14 15 16 17 18 19 20 21 22 23 24 25 26 27 28 29 30 31 32 33 34 35 36 37 38 39 40 41 42 43 44 45 46 47 48 49 50

000
ASUS41 KCLE 251002
RWRCLE
OHIO REGIONAL WEATHER ROUNDUP
NATIONAL WEATHER SERVICE CLEVELAND, OH
600 AM EDT MON MAY 25 2015

NOTE: "FAIR" INDICATES FEW OR NO CLOUDS BELOW 12,000 FEET WITH NO
SIGNIFICANT WEATHER AND/OR OBSTRUCTIONS TO VISIBILITY.

OHZ001>008-015>018-024>027-034-035-043-044-251100-
   NORTHWEST OHIO

CITY           SKY/WX    TMP DP  RH WIND       PRES   REMARKS
DEFIANCE       CLOUDY    70  55  59 S10       30.00F
FINDLAY        MOCLDY    71  54  54 S15       30.04S
TOLEDO EXPRESS MOCLDY    66  52  60 S6        30.01F
TOLEDO EXEC    PTCLDY    68  52  56 S10       30.03S
LIMA           CLOUDY    70  54  56 S14       30.05S
$$

OHZ009>014-019>023-028>033-038-089-251100-
   NORTHEAST OHIO

CITY           SKY/WX    TMP DP  RH WIND       PRES   REMARKS
CLE-HOPKINS    PTCLDY    68  52  56 S12       30.10S
CLE-LAKEFRONT  CLEAR     69  51  52 S12       30.07S
CUY CO. ARPT   NOT AVBL
LORAIN-ELYRIA  CLEAR     63  53  70 S12       30.08S
ASHTABULA      PTCLDY    62  47  57 S9        30.13S
AKRON-CANTON   CLEAR     62  51  67 S9        30.13S
WOOSTER        CLEAR     61  51  70 S6        30.13R
MANSFIELD      CLEAR     66  53  63 S12       30.11S
YOUNGSTOWN     PTCLDY    63  49  60 S9        30.14S
$$

OHZ042-051>053-060>062-070>072-077>081-251100-
  SOUTHWEST OHIO

CITY           SKY/WX    TMP DP  RH WIND       PRES   REMARKS
CINC-COVINGTON LGT RAIN  70  56  61 S12       30.10R
CINC-LUNKEN    CLOUDY    66  56  70 CALM      30.10S
HAMILTON       CLOUDY    70  56  61 VRB3      30.09S
DAYTON         CLOUDY    72  55  55 S15G23    30.09S
WRIGHT-PAT AFB CLOUDY    69  55  60 S10       30.09S
DAYTON GENERAL CLOUDY    69  56  62 S12       30.09S
WILMINGTON     CLOUDY    69  53  56 S13       30.11S
$$

OHZ036-037-039>041-045>050-054>059-063>069-073>076-082>088-251100-
  CENTRAL AND SOUTHEAST OHIO

CITY           SKY/WX    TMP DP  RH WIND       PRES   REMARKS
COLUMBUS       MOCLDY    66  54  65 SE6       30.11S
OSU AIRPORT    MOCLDY    67  54  63 S10       30.11S
BOLTON FIELD   NOT AVBL
RICKENBACK AFB NOT AVBL
NEWARK         CLEAR     57  54  89 CALM      30.13R
MARION         MOCLDY    64  54  69 S9        30.10R
LANCASTER      PTCLDY    63  54  72 SE8       30.14R
ZANESVILLE     CLEAR     61  52  72 S7        30.15R
NEW PHILLY     CLEAR     60  53  77 SE5       30.15S
$$


USA.gov is the U.S. government's official web portal to all federal, state and local government web resources and services.